[[{"header":{"parameterUnit":"m.s-1","parameterCategory":1,"la1":30.2991,"la2":30.254,"lo1":-89.0895,"lo2":-89.0444,"dy":0.0017,"dx":0.0017,"nx":28,"ny":28,"refTime":"2025-03-10T03:00:00:Z","depth":0,"parameterNumber":2,"parameterNumberName":"U-component_of_WINDS"},"data":[0,0,0,0,0,0,0,0,0,0,0,0,0,0,0,0,0,0,0,0,0,0,0,0,0,0,0,0,0,0,0,0,0,0,0,0,0,0,0,0,0,0,0,0,0,0,0,0,0,0,0,0,0,0,0,0,0,0,1.5043,1.5044,0,1.5145,1.5146,1.5147,1.5177,1.5176,1.5176,1.5175,1.5283,1.5287,1.529,0,0,0,0,0,0,0,0,0,0,0,0,0,1.4876,1.4879,1.5042,1.5044,1.5045,1.5145,1.5146,1.5147,1.5177,1.5176,1.5175,1.5175,1.5282,1.5286,1.529,0,0,0,0,0,0,0,0,0,0,0,0,0,1.496,1.488,1.5042,1.5072,1.5075,1.5144,1.5146,1.5148,1.5177,1.5176,1.5175,1.5174,1.5281,1.5286,1.5291,1.5339,0,0,1.5306,1.5309,0,0,0,0,0,0,0,0,1.4955,1.4966,1.5066,1.507,1.5074,1.5147,1.5127,1.5212,1.5177,1.5138,1.5175,1.5174,1.5239,1.5247,1.5268,1.5344,1.5349,1.5307,1.531,1.5312,1.5314,0,0,0,0,0,0,0,1.4949,1.4962,1.5083,1.5067,1.5072,1.5081,1.5092,1.5143,1.5192,1.5142,1.5144,1.5156,1.5241,1.5263,1.5271,1.535,1.5307,1.5311,1.5314,1.5316,1.5471,1.5472,0,0,0,0,0,0,1.4938,1.4957,1.508,1.5086,1.5011,1.5084,1.5097,1.5124,1.5192,1.5201,1.5156,1.5157,1.5255,1.5265,1.5275,1.5336,1.5312,1.5317,1.532,1.547,1.5472,1.5473,0,0,0,0,0,0,1.4934,1.4949,1.5076,1.5022,1.5039,1.5088,1.5119,1.5127,1.515,1.5203,1.5212,1.517,1.5255,1.5268,1.5323,1.5341,1.5319,1.5324,1.5469,1.5471,1.5472,1.5459,0,0,0,0,0,0,1.4929,1.4947,1.4965,1.5022,1.5042,1.5121,1.512,1.513,1.5158,1.5159,1.5218,1.5227,1.5255,1.5315,1.5328,1.5347,1.5328,1.5468,1.547,1.5472,1.5458,1.546,1.5461,0,0,0,0,0,1.4923,1.4958,1.4966,1.4981,1.5065,1.5121,1.5133,1.5163,1.5159,1.5178,1.5212,1.5225,1.5336,1.532,1.5335,1.5356,1.5467,1.5469,1.5471,1.5457,1.5459,1.5461,0,0,0,0,0,0,1.4903,1.4966,1.4976,1.503,1.507,1.5126,1.5151,1.5165,1.5208,1.5208,1.5245,1.5258,1.531,1.5339,1.532,1.5407,1.5402,1.5407,1.5386,1.5389,1.539,1.5383,1.5332,0,0,0,0,0,1.4905,1.4944,1.4998,1.504,1.506,1.5102,1.5128,1.5148,1.5191,1.5209,1.5247,1.529,1.5334,1.5363,1.5407,1.5462,1.5476,1.5484,1.5486,1.5487,1.5491,1.5523,1.5527,1.548,1.548,1.548,0,0,1.4909,1.4948,1.4971,1.5037,1.5071,1.5112,1.5116,1.5159,1.519,1.5216,1.527,1.5299,1.5349,1.5404,1.5431,1.543,1.5507,1.549,1.549,1.5494,1.5526,1.553,1.5534,1.5482,1.5482,1.5482,0,0,1.4937,1.4971,1.501,1.5043,1.5093,1.5121,1.5131,1.5185,1.5205,1.526,1.528,1.5318,1.5394,1.5429,1.5456,1.5498,1.5512,1.5511,1.5521,1.5551,1.5555,1.5558,1.5573,1.5578,1.5516,1.5516,1.5516,0,1.4936,1.4998,1.5029,1.5071,1.5099,1.5123,1.5164,1.5195,1.5257,1.5277,1.5275,1.5371,1.5406,1.547,1.548,1.5502,1.5514,1.5505,1.5551,1.5555,1.5559,1.5574,1.5579,1.5515,1.5515,1.5515,1.5515,0,1.4994,1.5037,1.5063,1.5121,1.5153,1.5194,1.5232,1.5261,1.5278,1.5306,1.5362,1.5405,1.5458,1.5475,1.5493,1.5541,1.5539,1.5544,1.554,1.5562,1.5577,1.5583,1.5515,1.5515,1.5515,1.5515,0,0,1.5013,1.5088,1.5097,1.5124,1.5181,1.5215,1.5257,1.5308,1.5332,1.5375,1.5412,1.5475,1.548,1.5511,1.5533,1.556,1.559,1.5561,1.5563,1.5565,1.5647,1.5643,1.5649,1.5599,1.5601,1.5602,1.5643,0,1.5049,1.5125,1.5154,1.5216,1.5256,1.5279,1.5316,1.5356,1.5384,1.5422,1.5453,1.5498,1.55,1.5519,1.5546,1.5581,1.5607,1.5578,1.5635,1.5637,1.5622,1.5657,1.5654,1.569,1.5649,1.565,1.5651,0,1.5101,1.5143,1.5209,1.5261,1.5279,1.5312,1.5361,1.5397,1.5443,1.5461,1.5496,1.5516,1.5563,1.5555,1.562,1.56,1.5625,1.5645,1.5648,1.5654,1.5645,1.5665,1.5703,1.5708,1.566,1.5659,1.5658,0,1.5108,1.5181,1.523,1.5252,1.5315,1.5337,1.5364,1.5409,1.5438,1.5481,1.55,1.5549,1.5575,1.5613,1.5646,1.5638,1.5708,1.5704,1.5725,1.5724,1.5739,1.5738,1.5782,1.5755,1.5755,1.5755,1.5755,0,1.5146,1.5185,1.5234,1.5264,1.5309,1.5343,1.5387,1.5416,1.5455,1.5492,1.5516,1.555,1.5591,1.5631,1.5658,1.5707,1.5719,1.5736,1.5743,1.5734,1.5732,1.5751,1.575,1.5756,1.5756,1.5756,1.5755,0,1.5162,1.5196,1.5251,1.5305,1.5319,1.535,1.5397,1.5428,1.5456,1.5503,1.5515,1.5561,1.5609,1.5645,1.5708,1.5726,1.5779,1.5786,1.5763,1.5766,1.5786,1.5784,1.5844,1.5854,1.582,1.582,1.582,0,1.5183,1.5214,1.5271,1.5297,1.5323,1.5365,1.5394,1.5428,1.5458,1.5512,1.5537,1.5586,1.5627,1.5703,1.5742,1.5791,1.5799,1.5817,1.5807,1.5797,1.58,1.5797,1.5801,1.5818,1.5818,1.5819,1.5819,0,1.5218,1.5233,1.5274,1.5321,1.5355,1.5393,1.5433,1.5453,1.5494,1.5527,1.5575,1.5607,1.5671,1.572,1.5772,1.5801,1.5817,1.5821,1.5829,1.5821,1.5806,1.5815,1.5767,1.582,1.582,1.582,1.582,1.582,1.5238,1.5266,1.5311,1.5355,1.5388,1.5424,1.5456,1.5488,1.5529,1.5582,1.56,1.5651,1.5696,1.5768,1.5797,1.5838,1.5838,1.5849,1.5852,1.5854,1.5854,1.5799,1.5847,1.5847,1.5847,1.5848,1.5848,0,1.5274,1.5303,1.5344,1.5398,1.5433,1.5444,1.5488,1.5517,1.5561,1.5601,1.5641,1.5698,1.5745,1.5788,1.5837,1.5862,1.587,1.5874,1.5872,1.5879,1.585,1.5839,1.5866,1.5866,1.5866,1.5866,1.5866,1.5866,1.5297,1.5345,1.5366,1.5432,1.5462,1.551,1.5535,1.5568,1.5601,1.5662,1.5701,1.5728,1.577,1.5823,1.5867,1.5879,1.5896,1.5898,1.5911,1.5883,1.5881,1.5879,1.5868,1.5901,1.5901,1.5936,1.5936,1.5937]},{"header":{"parameterUnit":"m.s-1","parameterCategory":1,"la1":30.2991,"la2":30.254,"lo1":-89.0895,"lo2":-89.0444,"dy":0.0017,"dx":0.0017,"nx":28,"ny":28,"refTime":"2025-03-10T03:00:00:Z","depth":0,"parameterNumber":3,"parameterNumberName":"V-component_of_WINDS"},"data":[0,0,0,0,0,0,0,0,0,0,0,0,0,0,0,0,0,0,0,0,0,0,0,0,0,0,0,0,0,0,0,0,0,0,0,0,0,0,0,0,0,0,0,0,0,0,0,0,0,0,0,0,0,0,0,0,0,0,1.6278,1.6277,0,1.6227,1.6227,1.6226,1.6208,1.6208,1.6208,1.6209,1.6153,1.6151,1.6149,0,0,0,0,0,0,0,0,0,0,0,0,0,1.6354,1.6353,1.6278,1.6277,1.6277,1.6227,1.6227,1.6226,1.6208,1.6208,1.6209,1.6209,1.6153,1.6151,1.6149,0,0,0,0,0,0,0,0,0,0,0,0,0,1.6314,1.6352,1.6278,1.6262,1.626,1.6227,1.6227,1.6226,1.6208,1.6208,1.6209,1.6209,1.6154,1.6151,1.6149,1.6127,0,0,1.6141,1.614,0,0,0,0,0,0,0,0,1.6316,1.6311,1.6265,1.6263,1.6261,1.6224,1.6233,1.6193,1.6208,1.6228,1.6209,1.6209,1.6176,1.6172,1.6161,1.6125,1.6122,1.6141,1.6139,1.6138,1.6138,0,0,0,0,0,0,0,1.6319,1.6313,1.6258,1.6264,1.6262,1.6255,1.625,1.6225,1.6201,1.6226,1.6224,1.6219,1.6175,1.6164,1.616,1.6122,1.6141,1.6139,1.6137,1.6136,1.6062,1.6062,0,0,0,0,0,0,1.6325,1.6315,1.6259,1.6256,1.629,1.6254,1.6248,1.6236,1.6201,1.6196,1.6219,1.6218,1.6168,1.6163,1.6158,1.6129,1.6138,1.6136,1.6135,1.6063,1.6062,1.6062,0,0,0,0,0,0,1.6327,1.632,1.6261,1.6285,1.6277,1.6252,1.6239,1.6234,1.6224,1.6196,1.6191,1.6212,1.6168,1.6161,1.6135,1.6127,1.6135,1.6133,1.6063,1.6063,1.6062,1.6072,0,0,0,0,0,0,1.6329,1.6321,1.6314,1.6285,1.6276,1.6241,1.6238,1.6233,1.622,1.6219,1.6188,1.6183,1.6168,1.6139,1.6132,1.6123,1.6131,1.6064,1.6063,1.6062,1.6072,1.6072,1.6071,0,0,0,0,0,1.6332,1.6318,1.6314,1.6307,1.6267,1.6241,1.6235,1.6219,1.6219,1.6211,1.6193,1.6184,1.6129,1.6136,1.6129,1.6119,1.6064,1.6063,1.6062,1.6072,1.6072,1.6071,0,0,0,0,0,0,1.6345,1.6314,1.6309,1.6286,1.6266,1.6238,1.6227,1.6219,1.6197,1.6197,1.6176,1.6169,1.6144,1.6129,1.6138,1.6095,1.6096,1.6093,1.6106,1.6105,1.6105,1.6109,1.6129,0,0,0,0,0,1.6346,1.6328,1.6302,1.6284,1.6274,1.6252,1.624,1.6229,1.6207,1.6198,1.6178,1.6156,1.6133,1.6118,1.6096,1.607,1.6062,1.6059,1.6059,1.6059,1.6056,1.6039,1.6037,1.6058,1.6058,1.6058,0,0,1.6347,1.6327,1.6317,1.6286,1.627,1.625,1.6245,1.6225,1.621,1.6195,1.6168,1.6153,1.6126,1.6099,1.6086,1.6086,1.6049,1.6057,1.6057,1.6055,1.6038,1.6036,1.6034,1.6058,1.6058,1.6058,0,0,1.6338,1.6322,1.6305,1.6288,1.6263,1.6248,1.6244,1.6217,1.6206,1.6179,1.6167,1.6147,1.611,1.609,1.6076,1.6058,1.6049,1.6051,1.6048,1.6032,1.603,1.6029,1.602,1.6018,1.6049,1.6049,1.6049,0,1.6341,1.6313,1.6297,1.6277,1.6263,1.6249,1.623,1.6214,1.6183,1.6172,1.6172,1.6123,1.6104,1.6072,1.6068,1.6057,1.605,1.6054,1.6032,1.603,1.6028,1.602,1.6018,1.605,1.6049,1.6049,1.6049,0,1.6318,1.6298,1.6287,1.6258,1.6242,1.6223,1.6202,1.6188,1.6178,1.6162,1.6134,1.6111,1.6083,1.6075,1.6064,1.604,1.604,1.6037,1.6036,1.6027,1.6019,1.6016,1.605,1.605,1.605,1.605,0,0,1.6317,1.6278,1.6274,1.626,1.623,1.6214,1.6193,1.6167,1.6154,1.6132,1.6113,1.608,1.6076,1.606,1.6047,1.6033,1.6017,1.603,1.6029,1.6027,1.5987,1.5989,1.5986,1.6011,1.6011,1.601,1.5988,0,1.6303,1.6267,1.6251,1.6221,1.6201,1.6187,1.6168,1.6147,1.6132,1.6111,1.6094,1.607,1.6068,1.6057,1.6043,1.6023,1.6009,1.6024,1.5991,1.599,1.5997,1.5982,1.5984,1.5965,1.5985,1.5985,1.5984,0,1.6283,1.6261,1.623,1.6201,1.6192,1.6176,1.615,1.6131,1.6106,1.6095,1.6076,1.6064,1.6039,1.6041,1.6005,1.6016,1.6001,1.5989,1.5988,1.5983,1.5986,1.5975,1.5958,1.5955,1.598,1.598,1.598,0,1.6283,1.6247,1.6223,1.6211,1.6177,1.6166,1.6151,1.6126,1.6111,1.6087,1.6076,1.6049,1.6034,1.6013,1.5992,1.5996,1.5958,1.5959,1.5946,1.5947,1.5938,1.5939,1.5918,1.5931,1.5931,1.5931,1.5931,0,1.6269,1.625,1.6222,1.6208,1.6185,1.6166,1.6143,1.6127,1.6105,1.6085,1.607,1.6051,1.6026,1.6004,1.5987,1.5959,1.5953,1.5942,1.5937,1.5942,1.5944,1.5932,1.5932,1.593,1.5931,1.5931,1.5931,0,1.6266,1.6247,1.622,1.619,1.6182,1.6166,1.614,1.6123,1.6107,1.6082,1.6074,1.6048,1.602,1.5998,1.5962,1.5951,1.592,1.5916,1.5929,1.5927,1.5915,1.5916,1.5884,1.5878,1.5897,1.5897,1.5897,0,1.6259,1.6244,1.6212,1.6198,1.6183,1.6161,1.6145,1.6125,1.6109,1.6078,1.6064,1.6036,1.6012,1.5968,1.5944,1.5916,1.591,1.5901,1.5905,1.591,1.5908,1.5908,1.5905,1.59,1.59,1.59,1.59,0,1.6246,1.6237,1.6215,1.6189,1.6171,1.6149,1.6127,1.6116,1.6092,1.6073,1.6045,1.6027,1.599,1.5961,1.5929,1.5912,1.59,1.5898,1.5894,1.5898,1.5906,1.59,1.5926,1.5899,1.5899,1.5899,1.5899,1.5899,1.6239,1.6224,1.6199,1.6175,1.6156,1.6136,1.6118,1.6099,1.6076,1.6045,1.6034,1.6005,1.5977,1.5934,1.5916,1.5891,1.589,1.5884,1.5882,1.588,1.588,1.5911,1.5885,1.5885,1.5885,1.5885,1.5885,0,1.6225,1.6208,1.6185,1.6155,1.6135,1.6128,1.6102,1.6086,1.606,1.6036,1.6013,1.5979,1.5951,1.5924,1.5893,1.5878,1.5872,1.5871,1.5871,1.5867,1.5884,1.589,1.5876,1.5876,1.5876,1.5876,1.5876,1.5876,1.6215,1.6189,1.6176,1.614,1.6122,1.6094,1.608,1.606,1.604,1.6004,1.598,1.5963,1.5937,1.5904,1.5877,1.5869,1.5858,1.5858,1.5849,1.5865,1.5866,1.5867,1.5873,1.5856,1.5856,1.5834,1.5833,1.5833]}]]